Regional Weather Roundup
Issued by NWS

Home | Current Version | Previous Version | Text Only | Print | Product List | Glossary On
Versions: 1 2 3 4 5 6 7 8 9 10 11 12 13 14 15 16 17 18 19 20 21 22 23 24 25 26 27 28 29 30 31 32 33 34 35 36 37 38 39 40 41 42 43 44 45 46 47 48 49 50
000
ASUS45 KABQ 051210
RWRNM
NEW MEXICO REGIONAL WEATHER ROUNDUP
NATIONAL WEATHER SERVICE ALBUQUERQUE NM
500 AM MST MON DEC 05 2016

NOTE: "FAIR" MEANS FEW OR NO CLOUDS BELOW 12,000 FEET AGL WITH NO
       SIGNIFICANT WEATHER OR OBSTRUCTIONS TO VISION.

      THIS PRODUCT IS RELEASED AS TWO VERSIONS.  ONE VERSION NEAR
      THE TOP OF THE HOUR CONTAINING PRELIMINARY DATA FROM ALBUQUERQUE
      AND OTHER STATIONS.  A FINAL VERSION WITH ADDITIONAL DATA IS
      ISSUED ABOUT 10 MINUTES AFTER THE HOUR.

NMZ501-503-504-510>518-051300-
NORTHWEST PLATEAU/NORTHCENTRAL MOUNTAINS

CITY           SKY/WX    TMP DP  RH WIND       PRES   REMARKS
FARMINGTON     FAIR      21  18  88 E6        29.92F WCI  13
6HR MIN TEMP:  20; 6HR MAX TEMP:  26;

LOS ALAMOS     FAIR      33  15  46 CALM      29.92F
SANTA FE       FAIR      23  14  68 N7        29.91S WCI  15
6HR MIN TEMP:  17; 6HR MAX TEMP:  29;

TAOS           FAIR      16   5  62 N6        29.92F WCI   7
ANGEL FIRE     FAIR      32  12  43 W18G28    29.85F WCI  20

$$
NMZ402-403-502-505>509-051300-
WESTCENTRAL MOUNTAINS/SOUTHWEST MOUNTAINS

CITY           SKY/WX    TMP DP  RH WIND       PRES   REMARKS
GALLUP         FAIR      17  13  84 CALM      29.95F
6HR MIN TEMP:  16; 6HR MAX TEMP:  22;

GRANTS         FAIR      18  14  84 NW3       29.96F
SILVER CITY    FAIR      29  25  86 N9        29.97F WCI  20

$$
NMZ407-409-411-412-051300-
SOUTHERN DESERTS

CITY           SKY/WX    TMP DP  RH WIND       PRES   REMARKS
DEMING         FAIR      29  26  89 W5        29.96F WCI  24
6HR MIN TEMP:  27; 6HR MAX TEMP:  32;

LAS CRUCES     FAIR      27  22  79 NW5       29.96F WCI  22
HOLLOMAN AFB   FAIR      24  17  75 E3        29.98F
T OR C         FAIR      30  17  58 CALM      29.94F
6HR MIN TEMP:  27; 6HR MAX TEMP:  35;


$$
NMZ519>523-051300-
CENTRAL VALLEYS/CENTRAL HIGHLANDS

CITY           SKY/WX    TMP DP  RH WIND       PRES   REMARKS
ALBUQUERQUE    FAIR      28  13  53 CALM      29.94F
6HR MIN TEMP:  23; 6HR MAX TEMP:  35;

DOUBLE EAGLE   FAIR      23  13  66 CALM      29.94S
MORIARTY ARPT  FAIR      15   9  76 CALM      29.91F
6HR MIN TEMP:  13; 6HR MAX TEMP:  20;

CLINES CORNERS FAIR      27   8  44 W15       29.88F WCI  15
6HR MIN TEMP:  23; 6HR MAX TEMP:  30;

BELEN          FAIR      23  17  80 CALM      29.94F
6HR MIN TEMP:  21; 6HR MAX TEMP:  29;

SOCORRO        FAIR      26  16  66 S6        29.95F WCI  19
6HR MIN TEMP:  24; 6HR MAX TEMP:  31;


$$
NMZ524>526-539-540-051300-
SOUTHCENTRAL MOUNTAINS

CITY           SKY/WX    TMP DP  RH WIND       PRES   REMARKS
RUIDOSO        FAIR      32  14  47 W6        29.93F WCI  26

$$
NMZ527>531-051300-
NORTHEAST HIGHLANDS/NORTHEAST PLAINS

CITY           SKY/WX    TMP DP  RH WIND       PRES   REMARKS
LAS VEGAS      FAIR      29  13  51 SW13      29.79F WCI  19
6HR MIN TEMP:  23; 6HR MAX TEMP:  42;

RATON          FAIR      20  13  74 S5        29.73F WCI  13
6HR MIN TEMP:  16; 6HR MAX TEMP:  24;

CLAYTON        FAIR      32  22  66 W13       29.67F WCI  22
6HR MIN TEMP:  27; 6HR MAX TEMP:  36;


$$
NMZ532>537-051300-
EASTCENTRAL PLAINS

CITY           SKY/WX    TMP DP  RH WIND       PRES   REMARKS
TUCUMCARI      FAIR      36  22  56 SW20      29.76F WCI  25
6HR MIN TEMP:  35; 6HR MAX TEMP:  40;

CANNON AFB     FAIR      28  28 100 W10       29.84F WCI  19
6HR MIN TEMP:  24; 6HR MAX TEMP:  30;

CLOVIS AIRPORT FAIR      30  27  86 W12       29.83F WCI  21

$$
NMZ028-029-538-051300-
SOUTHEAST PLAINS

CITY           SKY/WX    TMP DP  RH WIND       PRES   REMARKS
ROSWELL        FAIR      22  18  85 CALM      29.87F
6HR MIN TEMP:  22; 6HR MAX TEMP:  30;

ARTESIA        FAIR      27  27 100 CALM      29.89F
CARLSBAD       FOG       27  27 100 CALM      29.89F VSB 1/4
6HR MIN TEMP:  26; 6HR MAX TEMP:  33;

HOBBS          FAIR      28  28 100 SW3       29.90F


$$



USA.gov is the U.S. government's official web portal to all federal, state and local government web resources and services.